owner,sensor,date,latitude,longitude,vertical_datum,wind_speed,wind_to_direction,wind_speed_of_gust,qcFlag 
NDBC,ioos:station:NOAA.NDBC:SMKF1:1,2015-08-01T01:00:00Z,24.6280,-81.1120,48.5,1.0,70.0,1.5,'1111122,1111122,1111122' 
NDBC,ioos:station:NOAA.NDBC:SMKF1:1,2015-08-01T04:00:00Z,24.6280,-81.1120,48.5,6.2,100.0,6.7,'1111122,1111122,1111122' 
NDBC,ioos:station:NOAA.NDBC:SMKF1:1,2015-08-01T05:00:00Z,24.6280,-81.1120,48.5,5.7,110.0,6.2,'1111122,1111122,1111122' 
NDBC,ioos:station:NOAA.NDBC:SMKF1:1,2015-08-01T07:00:00Z,24.6280,-81.1120,48.5,5.1,140.0,5.7,'1111122,1111122,1111122' 
NDBC,ioos:station:NOAA.NDBC:SMKF1:1,2015-08-01T11:00:00Z,24.6280,-81.1120,48.5,5.1,140.0,5.7,'1111122,1111122,1111122' 
NDBC,ioos:station:NOAA.NDBC:SMKF1:1,2015-08-01T12:00:00Z,24.6280,-81.1120,48.5,5.1,160.0,6.2,'1111122,1111122,1111122' 
NDBC,ioos:station:NOAA.NDBC:SMKF1:1,2015-08-01T14:00:00Z,24.6280,-81.1120,48.5,6.7,150.0,7.2,'1111122,1111122,1111122' 
NDBC,ioos:station:NOAA.NDBC:SMKF1:1,2015-08-01T15:00:00Z,24.6280,-81.1120,48.5,7.2,160.0,8.2,'1111122,1111122,1111122' 
NDBC,ioos:station:NOAA.NDBC:SMKF1:1,2015-08-01T17:00:00Z,24.6280,-81.1120,48.5,6.7,160.0,7.2,'1111122,1111122,1111122' 
NDBC,ioos:station:NOAA.NDBC:SMKF1:1,2015-08-01T18:00:00Z,24.6280,-81.1120,48.5,6.2,180.0,6.7,'1111122,1111122,1111122' 
NDBC,ioos:station:NOAA.NDBC:SMKF1:1,2015-08-01T19:00:00Z,24.6280,-81.1120,48.5,4.1,190.0,4.6,'1111122,1111122,1111122' 
NDBC,ioos:station:NOAA.NDBC:SMKF1:1,2015-08-01T20:00:00Z,24.6280,-81.1120,48.5,3.6,180.0,3.6,'1111122,1111122,1111122' 
NDBC,ioos:station:NOAA.NDBC:SMKF1:1,2015-08-01T21:00:00Z,24.6280,-81.1120,48.5,3.1,180.0,3.6,'1111122,1111122,1111122' 
NDBC,ioos:station:NOAA.NDBC:SMKF1:1,2015-08-01T22:00:00Z,24.6280,-81.1120,48.5,1.5,160.0,2.1,'1111122,1111122,1111122' 
NDBC,ioos:station:NOAA.NDBC:SMKF1:1,2015-08-01T23:00:00Z,24.6280,-81.1120,48.5,2.1,110.0,2.6,'1111122,1111122,1111122' 
NDBC,ioos:station:NOAA.NDBC:SMKF1:1,2015-08-02T00:00:00Z,24.6280,-81.1120,48.5,3.6,100.0,4.1,'1111122,1111122,1111122' 
NDBC,ioos:station:NOAA.NDBC:SMKF1:1,2015-08-02T01:00:00Z,24.6280,-81.1120,48.5,5.1,110.0,5.7,'1111122,1111122,1111122' 
NDBC,ioos:station:NOAA.NDBC:SMKF1:1,2015-08-02T02:00:00Z,24.6280,-81.1120,48.5,6.7,130.0,6.7,'1111122,1111122,1111122' 
NDBC,ioos:station:NOAA.NDBC:SMKF1:1,2015-08-02T03:00:00Z,24.6280,-81.1120,48.5,8.2,130.0,8.8,'1111122,1111122,1111122' 
NDBC,ioos:station:NOAA.NDBC:SMKF1:1,2015-08-02T04:00:00Z,24.6280,-81.1120,48.5,8.2,150.0,8.8,'1111122,1111122,1111122' 
NDBC,ioos:station:NOAA.NDBC:SMKF1:1,2015-08-02T05:00:00Z,24.6280,-81.1120,48.5,6.7,140.0,7.2,'1111122,1111122,1111122' 
NDBC,ioos:station:NOAA.NDBC:SMKF1:1,2015-08-02T06:00:00Z,24.6280,-81.1120,48.5,5.7,140.0,6.7,'1111122,1111122,1111122' 
NDBC,ioos:station:NOAA.NDBC:SMKF1:1,2015-08-02T08:00:00Z,24.6280,-81.1120,48.5,6.2,150.0,7.2,'1111122,1111122,1111122' 
NDBC,ioos:station:NOAA.NDBC:SMKF1:1,2015-08-02T09:00:00Z,24.6280,-81.1120,48.5,6.2,160.0,6.7,'1111122,1111122,1111122' 
NDBC,ioos:station:NOAA.NDBC:SMKF1:1,2015-08-02T10:00:00Z,24.6280,-81.1120,48.5,6.2,160.0,6.7,'1111122,1111122,1111122' 
NDBC,ioos:station:NOAA.NDBC:SMKF1:1,2015-08-02T11:00:00Z,24.6280,-81.1120,48.5,6.7,160.0,7.7,'1111122,1111122,1111122' 
NDBC,ioos:station:NOAA.NDBC:SMKF1:1,2015-08-02T12:00:00Z,24.6280,-81.1120,48.5,5.7,150.0,6.2,'1111122,1111122,1111122' 
NDBC,ioos:station:NOAA.NDBC:SMKF1:1,2015-08-03T04:00:00Z,24.6280,-81.1120,48.5,6.7,280.0,7.7,'1111122,1111122,1111122' 
NDBC,ioos:station:NOAA.NDBC:SMKF1:1,2015-08-03T05:00:00Z,24.6280,-81.1120,48.5,2.6,270.0,3.1,'1111122,1111122,1111122' 
NDBC,ioos:station:NOAA.NDBC:SMKF1:1,2015-08-03T06:00:00Z,24.6280,-81.1120,48.5,1.5,110.0,2.1,'1111122,1111122,1111122' 
NDBC,ioos:station:NOAA.NDBC:SMKF1:1,2015-08-03T07:00:00Z,24.6280,-81.1120,48.5,1.5,120.0,2.1,'1111122,1111122,1111122' 
NDBC,ioos:station:NOAA.NDBC:SMKF1:1,2015-08-04T04:00:00Z,24.6280,-81.1120,48.5,4.6,70.0,5.1,'1111122,1111122,1111122' 
NDBC,ioos:station:NOAA.NDBC:SMKF1:1,2015-08-04T05:00:00Z,24.6280,-81.1120,48.5,4.1,60.0,5.1,'1111122,1111122,1111122' 
NDBC,ioos:station:NOAA.NDBC:SMKF1:1,2015-08-04T06:00:00Z,24.6280,-81.1120,48.5,3.6,70.0,3.6,'1111122,1111122,1111122' 
NDBC,ioos:station:NOAA.NDBC:SMKF1:1,2015-08-04T07:00:00Z,24.6280,-81.1120,48.5,4.1,100.0,4.6,'1111122,1111122,1111122' 
NDBC,ioos:station:NOAA.NDBC:SMKF1:1,2015-08-04T08:00:00Z,24.6280,-81.1120,48.5,3.6,100.0,4.1,'1111122,1111122,1111122' 
NDBC,ioos:station:NOAA.NDBC:SMKF1:1,2015-08-04T09:00:00Z,24.6280,-81.1120,48.5,3.6,110.0,3.6,'1111122,1111122,1111122' 
NDBC,ioos:station:NOAA.NDBC:SMKF1:1,2015-08-04T10:00:00Z,24.6280,-81.1120,48.5,9.8,110.0,11.8,'1111122,1111122,1111122' 
NDBC,ioos:station:NOAA.NDBC:SMKF1:1,2015-08-04T11:00:00Z,24.6280,-81.1120,48.5,1.0,320.0,1.5,'1111122,1111122,1111122' 
NDBC,ioos:station:NOAA.NDBC:SMKF1:1,2015-08-04T12:00:00Z,24.6280,-81.1120,48.5,4.6,100.0,5.1,'1111122,1111122,1111122' 
NDBC,ioos:station:NOAA.NDBC:SMKF1:1,2015-08-04T14:00:00Z,24.6280,-81.1120,48.5,4.1,110.0,4.6,'1111122,1111122,1111122' 
NDBC,ioos:station:NOAA.NDBC:SMKF1:1,2015-08-04T21:00:00Z,24.6280,-81.1120,48.5,4.6,110.0,5.1,'1111122,1111122,1111122' 
NDBC,ioos:station:NOAA.NDBC:SMKF1:1,2015-08-05T00:00:00Z,24.6280,-81.1120,48.5,2.6,90.0,3.1,'1111122,1111122,1111122' 
NDBC,ioos:station:NOAA.NDBC:SMKF1:1,2015-08-05T02:00:00Z,24.6280,-81.1120,48.5,5.1,120.0,5.7,'1111122,1111122,1111122' 
NDBC,ioos:station:NOAA.NDBC:SMKF1:1,2015-08-05T03:00:00Z,24.6280,-81.1120,48.5,5.7,110.0,6.2,'1111122,1111122,1111122' 
NDBC,ioos:station:NOAA.NDBC:SMKF1:1,2015-08-05T04:00:00Z,24.6280,-81.1120,48.5,5.7,110.0,6.2,'1111122,1111122,1111122' 
NDBC,ioos:station:NOAA.NDBC:SMKF1:1,2015-08-05T05:00:00Z,24.6280,-81.1120,48.5,5.1,110.0,5.7,'1111122,1111122,1111122' 
NDBC,ioos:station:NOAA.NDBC:SMKF1:1,2015-08-05T06:00:00Z,24.6280,-81.1120,48.5,5.7,120.0,6.2,'1111122,1111122,1111122' 
NDBC,ioos:station:NOAA.NDBC:SMKF1:1,2015-08-05T07:00:00Z,24.6280,-81.1120,48.5,6.7,130.0,6.7,'1111122,1111122,1111122' 
NDBC,ioos:station:NOAA.NDBC:SMKF1:1,2015-08-05T08:00:00Z,24.6280,-81.1120,48.5,6.2,130.0,7.2,'1111122,1111122,1111122' 
NDBC,ioos:station:NOAA.NDBC:SMKF1:1,2015-08-05T09:00:00Z,24.6280,-81.1120,48.5,4.6,130.0,4.6,'1111122,1111122,1111122' 
NDBC,ioos:station:NOAA.NDBC:SMKF1:1,2015-08-05T10:00:00Z,24.6280,-81.1120,48.5,4.6,110.0,5.1,'1111122,1111122,1111122' 
NDBC,ioos:station:NOAA.NDBC:SMKF1:1,2015-08-05T11:00:00Z,24.6280,-81.1120,48.5,4.1,110.0,4.6,'1111122,1111122,1111122' 
NDBC,ioos:station:NOAA.NDBC:SMKF1:1,2015-08-05T12:00:00Z,24.6280,-81.1120,48.5,5.1,120.0,5.7,'1111122,1111122,1111122' 
NDBC,ioos:station:NOAA.NDBC:SMKF1:1,2015-08-05T13:00:00Z,24.6280,-81.1120,48.5,6.2,130.0,6.7,'1111122,1111122,1111122' 
NDBC,ioos:station:NOAA.NDBC:SMKF1:1,2015-08-05T14:00:00Z,24.6280,-81.1120,48.5,6.2,120.0,6.7,'1111122,1111122,1111122' 
NDBC,ioos:station:NOAA.NDBC:SMKF1:1,2015-08-05T16:00:00Z,24.6280,-81.1120,48.5,4.6,120.0,5.1,'1111122,1111122,1111122' 
NDBC,ioos:station:NOAA.NDBC:SMKF1:1,2015-08-05T17:00:00Z,24.6280,-81.1120,48.5,4.1,130.0,4.6,'1111122,1111122,1111122' 
NDBC,ioos:station:NOAA.NDBC:SMKF1:1,2015-08-05T19:00:00Z,24.6280,-81.1120,48.5,4.6,110.0,5.1,'1111122,1111122,1111122' 
NDBC,ioos:station:NOAA.NDBC:SMKF1:1,2015-08-05T20:00:00Z,24.6280,-81.1120,48.5,4.1,100.0,5.1,'1111122,1111122,1111122' 
NDBC,ioos:station:NOAA.NDBC:SMKF1:1,2015-08-05T21:00:00Z,24.6280,-81.1120,48.5,4.6,110.0,5.1,'1111122,1111122,1111122' 
NDBC,ioos:station:NOAA.NDBC:SMKF1:1,2015-08-05T23:00:00Z,24.6280,-81.1120,48.5,3.6,70.0,4.6,'1111122,1111122,1111122' 
NDBC,ioos:station:NOAA.NDBC:SMKF1:1,2015-08-06T00:00:00Z,24.6280,-81.1120,48.5,5.1,80.0,5.7,'1111122,1111122,1111122' 
NDBC,ioos:station:NOAA.NDBC:SMKF1:1,2015-08-06T02:00:00Z,24.6280,-81.1120,48.5,6.2,90.0,6.7,'1111122,1111122,1111122' 
NDBC,ioos:station:NOAA.NDBC:SMKF1:1,2015-08-06T03:00:00Z,24.6280,-81.1120,48.5,5.7,90.0,6.2,'1111122,1111122,1111122' 
NDBC,ioos:station:NOAA.NDBC:SMKF1:1,2015-08-06T04:00:00Z,24.6280,-81.1120,48.5,6.2,90.0,6.7,'1111122,1111122,1111122' 
NDBC,ioos:station:NOAA.NDBC:SMKF1:1,2015-08-06T05:00:00Z,24.6280,-81.1120,48.5,5.7,90.0,6.2,'1111122,1111122,1111122' 
NDBC,ioos:station:NOAA.NDBC:SMKF1:1,2015-08-06T06:00:00Z,24.6280,-81.1120,48.5,5.7,100.0,6.2,'1111122,1111122,1111122' 
NDBC,ioos:station:NOAA.NDBC:SMKF1:1,2015-08-06T08:00:00Z,24.6280,-81.1120,48.5,6.2,110.0,7.2,'1111122,1111122,1111122' 
NDBC,ioos:station:NOAA.NDBC:SMKF1:1,2015-08-06T09:00:00Z,24.6280,-81.1120,48.5,7.2,100.0,7.7,'1111122,1111122,1111122' 
NDBC,ioos:station:NOAA.NDBC:SMKF1:1,2015-08-06T11:00:00Z,24.6280,-81.1120,48.5,8.2,120.0,8.2,'1111122,1111122,1111122' 
NDBC,ioos:station:NOAA.NDBC:SMKF1:1,2015-08-06T12:00:00Z,24.6280,-81.1120,48.5,6.7,110.0,6.7,'1111122,1111122,1111122' 
NDBC,ioos:station:NOAA.NDBC:SMKF1:1,2015-08-06T13:00:00Z,24.6280,-81.1120,48.5,7.2,110.0,7.7,'1111122,1111122,1111122' 
NDBC,ioos:station:NOAA.NDBC:SMKF1:1,2015-08-06T14:00:00Z,24.6280,-81.1120,48.5,6.2,120.0,6.7,'1111122,1111122,1111122' 
NDBC,ioos:station:NOAA.NDBC:SMKF1:1,2015-08-06T15:00:00Z,24.6280,-81.1120,48.5,6.2,110.0,6.7,'1111122,1111122,1111122' 
NDBC,ioos:station:NOAA.NDBC:SMKF1:1,2015-08-06T16:00:00Z,24.6280,-81.1120,48.5,5.7,100.0,6.7,'1111122,1111122,1111122' 
NDBC,ioos:station:NOAA.NDBC:SMKF1:1,2015-08-06T17:00:00Z,24.6280,-81.1120,48.5,4.6,100.0,5.1,'1111122,1111122,1111122' 
NDBC,ioos:station:NOAA.NDBC:SMKF1:1,2015-08-06T18:00:00Z,24.6280,-81.1120,48.5,6.2,100.0,6.7,'1111122,1111122,1111122' 
NDBC,ioos:station:NOAA.NDBC:SMKF1:1,2015-08-06T19:00:00Z,24.6280,-81.1120,48.5,5.7,100.0,6.2,'1111122,1111122,1111122' 
NDBC,ioos:station:NOAA.NDBC:SMKF1:1,2015-08-06T20:00:00Z,24.6280,-81.1120,48.5,5.1,100.0,5.7,'1111122,1111122,1111122' 
NDBC,ioos:station:NOAA.NDBC:SMKF1:1,2015-08-06T22:00:00Z,24.6280,-81.1120,48.5,4.6,100.0,5.1,'1111122,1111122,1111122' 
NDBC,ioos:station:NOAA.NDBC:SMKF1:1,2015-08-06T23:00:00Z,24.6280,-81.1120,48.5,5.7,90.0,6.7,'1111122,1111122,1111122' 
NDBC,ioos:station:NOAA.NDBC:SMKF1:1,2015-08-07T00:00:00Z,24.6280,-81.1120,48.5,5.7,90.0,6.2,'1111122,1111122,1111122' 
NDBC,ioos:station:NOAA.NDBC:SMKF1:1,2015-08-07T08:00:00Z,24.6280,-81.1120,48.5,4.6,100.0,5.1,'1111122,1111122,1111122' 
NDBC,ioos:station:NOAA.NDBC:SMKF1:1,2015-08-07T10:00:00Z,24.6280,-81.1120,48.5,2.6,100.0,3.1,'1111122,1111122,1111122' 
NDBC,ioos:station:NOAA.NDBC:SMKF1:1,2015-08-07T11:00:00Z,24.6280,-81.1120,48.5,4.1,120.0,4.6,'1111122,1111122,1111122' 
NDBC,ioos:station:NOAA.NDBC:SMKF1:1,2015-08-07T12:00:00Z,24.6280,-81.1120,48.5,3.6,120.0,4.1,'1111122,1111122,1111122' 
NDBC,ioos:station:NOAA.NDBC:SMKF1:1,2015-08-07T13:00:00Z,24.6280,-81.1120,48.5,4.6,120.0,5.1,'1111122,1111122,1111122' 
NDBC,ioos:station:NOAA.NDBC:SMKF1:1,2015-08-07T14:00:00Z,24.6280,-81.1120,48.5,5.1,120.0,5.1,'1111122,1111122,1111122' 
NDBC,ioos:station:NOAA.NDBC:SMKF1:1,2015-08-07T15:00:00Z,24.6280,-81.1120,48.5,3.6,130.0,4.6,'1111122,1111122,1111122' 
NDBC,ioos:station:NOAA.NDBC:SMKF1:1,2015-08-07T16:00:00Z,24.6280,-81.1120,48.5,2.6,90.0,3.1,'1111122,1111122,1111122' 
NDBC,ioos:station:NOAA.NDBC:SMKF1:1,2015-08-07T17:00:00Z,24.6280,-81.1120,48.5,3.1,120.0,3.1,'1111122,1111122,1111122' 
NDBC,ioos:station:NOAA.NDBC:SMKF1:1,2015-08-07T18:00:00Z,24.6280,-81.1120,48.5,1.5,100.0,2.1,'1111122,1111122,1111122' 
NDBC,ioos:station:NOAA.NDBC:SMKF1:1,2015-08-07T19:00:00Z,24.6280,-81.1120,48.5,2.6,120.0,2.6,'1111122,1111122,1111122' 
NDBC,ioos:station:NOAA.NDBC:SMKF1:1,2015-08-07T20:00:00Z,24.6280,-81.1120,48.5,2.1,80.0,2.6,'1111122,1111122,1111122' 
NDBC,ioos:station:NOAA.NDBC:SMKF1:1,2015-08-07T21:00:00Z,24.6280,-81.1120,48.5,2.1,110.0,2.6,'1111122,1111122,1111122' 
NDBC,ioos:station:NOAA.NDBC:SMKF1:1,2015-08-07T22:00:00Z,24.6280,-81.1120,48.5,2.1,70.0,2.6,'1111122,1111122,1111122' 
NDBC,ioos:station:NOAA.NDBC:SMKF1:1,2015-08-07T23:00:00Z,24.6280,-81.1120,48.5,3.1,90.0,3.6,'1111122,1111122,1111122' 
NDBC,ioos:station:NOAA.NDBC:SMKF1:1,2015-08-08T00:00:00Z,24.6280,-81.1120,48.5,3.1,110.0,3.6,'1111122,1111122,1111122' 
NDBC,ioos:station:NOAA.NDBC:SMKF1:1,2015-08-08T01:00:00Z,24.6280,-81.1120,48.5,2.1,140.0,2.1,'1111122,1111122,1111122' 
NDBC,ioos:station:NOAA.NDBC:SMKF1:1,2015-08-08T02:00:00Z,24.6280,-81.1120,48.5,1.5,110.0,2.1,'1111122,1111122,1111122' 
NDBC,ioos:station:NOAA.NDBC:SMKF1:1,2015-08-08T03:00:00Z,24.6280,-81.1120,48.5,2.1,90.0,2.6,'1111122,1111122,1111122' 
NDBC,ioos:station:NOAA.NDBC:SMKF1:1,2015-08-08T04:00:00Z,24.6280,-81.1120,48.5,2.6,100.0,3.1,'1111122,1111122,1111122' 
NDBC,ioos:station:NOAA.NDBC:SMKF1:1,2015-08-08T05:00:00Z,24.6280,-81.1120,48.5,1.5,80.0,2.6,'1111122,1111122,1111122' 
NDBC,ioos:station:NOAA.NDBC:SMKF1:1,2015-08-08T06:00:00Z,24.6280,-81.1120,48.5,1.5,100.0,2.1,'1111122,1111122,1111122' 
NDBC,ioos:station:NOAA.NDBC:SMKF1:1,2015-08-08T08:00:00Z,24.6280,-81.1120,48.5,2.1,120.0,2.6,'1111122,1111122,1111122' 
NDBC,ioos:station:NOAA.NDBC:SMKF1:1,2015-08-08T09:00:00Z,24.6280,-81.1120,48.5,3.1,150.0,3.6,'1111122,1111122,1111122' 
NDBC,ioos:station:NOAA.NDBC:SMKF1:1,2015-08-08T10:00:00Z,24.6280,-81.1120,48.5,2.1,160.0,2.6,'1111122,1111122,1111122' 
NDBC,ioos:station:NOAA.NDBC:SMKF1:1,2015-08-08T11:00:00Z,24.6280,-81.1120,48.5,0.0,-9999.0,0.5,'1114422,1111122,1111122' 
NDBC,ioos:station:NOAA.NDBC:SMKF1:1,2015-08-08T12:00:00Z,24.6280,-81.1120,48.5,2.1,170.0,2.6,'1111122,1111122,1111122' 
NDBC,ioos:station:NOAA.NDBC:SMKF1:1,2015-08-08T13:00:00Z,24.6280,-81.1120,48.5,1.0,160.0,1.5,'1111122,1111122,1111122' 
NDBC,ioos:station:NOAA.NDBC:SMKF1:1,2015-08-08T14:00:00Z,24.6280,-81.1120,48.5,0.0,-9999.0,0.5,'1114422,1111122,1111122' 
NDBC,ioos:station:NOAA.NDBC:SMKF1:1,2015-08-08T17:00:00Z,24.6280,-81.1120,48.5,1.0,150.0,1.5,'1111122,1111122,1111122' 
NDBC,ioos:station:NOAA.NDBC:SMKF1:1,2015-08-08T18:00:00Z,24.6280,-81.1120,48.5,1.0,200.0,1.0,'1111122,1111122,1111122' 
NDBC,ioos:station:NOAA.NDBC:SMKF1:1,2015-08-08T19:00:00Z,24.6280,-81.1120,48.5,1.5,260.0,2.1,'1111122,1111122,1111122' 
NDBC,ioos:station:NOAA.NDBC:SMKF1:1,2015-08-08T20:00:00Z,24.6280,-81.1120,48.5,3.1,250.0,3.1,'1111122,1111122,1111122' 
NDBC,ioos:station:NOAA.NDBC:SMKF1:1,2015-08-08T21:00:00Z,24.6280,-81.1120,48.5,2.6,230.0,3.1,'1111122,1111122,1111122' 
NDBC,ioos:station:NOAA.NDBC:SMKF1:1,2015-08-08T22:00:00Z,24.6280,-81.1120,48.5,1.5,240.0,2.1,'1111122,1111122,1111122' 
NDBC,ioos:station:NOAA.NDBC:SMKF1:1,2015-08-08T23:00:00Z,24.6280,-81.1120,48.5,1.0,210.0,1.0,'1111122,1111122,1111122' 
NDBC,ioos:station:NOAA.NDBC:SMKF1:1,2015-08-09T00:00:00Z,24.6280,-81.1120,48.5,4.1,340.0,4.6,'1111122,1111122,1111122' 
NDBC,ioos:station:NOAA.NDBC:SMKF1:1,2015-08-09T01:00:00Z,24.6280,-81.1120,48.5,3.1,340.0,3.6,'1111122,1111122,1111122' 
NDBC,ioos:station:NOAA.NDBC:SMKF1:1,2015-08-09T02:00:00Z,24.6280,-81.1120,48.5,0.5,40.0,1.0,'1111122,1111122,1111122' 
NDBC,ioos:station:NOAA.NDBC:SMKF1:1,2015-08-09T03:00:00Z,24.6280,-81.1120,48.5,0.0,-9999.0,0.5,'1114422,1111122,1111122' 
NDBC,ioos:station:NOAA.NDBC:SMKF1:1,2015-08-09T05:00:00Z,24.6280,-81.1120,48.5,1.5,350.0,1.5,'1111122,1111122,1111122' 
NDBC,ioos:station:NOAA.NDBC:SMKF1:1,2015-08-09T06:00:00Z,24.6280,-81.1120,48.5,1.0,110.0,1.0,'1111122,1111122,1111122' 
NDBC,ioos:station:NOAA.NDBC:SMKF1:1,2015-08-09T07:00:00Z,24.6280,-81.1120,48.5,0.5,120.0,0.5,'1111122,1111122,1111122' 
NDBC,ioos:station:NOAA.NDBC:SMKF1:1,2015-08-09T08:00:00Z,24.6280,-81.1120,48.5,3.1,190.0,3.6,'1111122,1111122,1111122' 
NDBC,ioos:station:NOAA.NDBC:SMKF1:1,2015-08-09T09:00:00Z,24.6280,-81.1120,48.5,2.6,210.0,3.1,'1111122,1111122,1111122' 
NDBC,ioos:station:NOAA.NDBC:SMKF1:1,2015-08-09T10:00:00Z,24.6280,-81.1120,48.5,2.1,170.0,3.1,'1111122,1111122,1111122' 
NDBC,ioos:station:NOAA.NDBC:SMKF1:1,2015-08-09T11:00:00Z,24.6280,-81.1120,48.5,4.1,250.0,4.6,'1111122,1111122,1111122' 
NDBC,ioos:station:NOAA.NDBC:SMKF1:1,2015-08-09T12:00:00Z,24.6280,-81.1120,48.5,3.6,230.0,4.1,'1111122,1111122,1111122' 
NDBC,ioos:station:NOAA.NDBC:SMKF1:1,2015-08-09T13:00:00Z,24.6280,-81.1120,48.5,3.6,220.0,3.6,'1111122,1111122,1111122' 
NDBC,ioos:station:NOAA.NDBC:SMKF1:1,2015-08-09T14:00:00Z,24.6280,-81.1120,48.5,1.5,230.0,2.1,'1111122,1111122,1111122' 
NDBC,ioos:station:NOAA.NDBC:SMKF1:1,2015-08-09T15:00:00Z,24.6280,-81.1120,48.5,0.5,340.0,1.0,'1111122,1111122,1111122' 
NDBC,ioos:station:NOAA.NDBC:SMKF1:1,2015-08-09T16:00:00Z,24.6280,-81.1120,48.5,2.1,200.0,2.6,'1111122,1111122,1111122' 
NDBC,ioos:station:NOAA.NDBC:SMKF1:1,2015-08-09T17:00:00Z,24.6280,-81.1120,48.5,1.5,230.0,2.1,'1111122,1111122,1111122' 
NDBC,ioos:station:NOAA.NDBC:SMKF1:1,2015-08-09T18:00:00Z,24.6280,-81.1120,48.5,1.5,200.0,2.1,'1111122,1111122,1111122' 
NDBC,ioos:station:NOAA.NDBC:SMKF1:1,2015-08-09T19:00:00Z,24.6280,-81.1120,48.5,2.1,220.0,2.1,'1111122,1111122,1111122' 
NDBC,ioos:station:NOAA.NDBC:SMKF1:1,2015-08-09T20:00:00Z,24.6280,-81.1120,48.5,2.1,200.0,2.6,'1111122,1111122,1111122' 
NDBC,ioos:station:NOAA.NDBC:SMKF1:1,2015-08-09T21:00:00Z,24.6280,-81.1120,48.5,2.1,290.0,2.1,'1111122,1111122,1111122' 
NDBC,ioos:station:NOAA.NDBC:SMKF1:1,2015-08-09T22:00:00Z,24.6280,-81.1120,48.5,2.1,270.0,2.6,'1111122,1111122,1111122' 
NDBC,ioos:station:NOAA.NDBC:SMKF1:1,2015-08-09T23:00:00Z,24.6280,-81.1120,48.5,0.0,-9999.0,0.5,'1114422,1111122,1111122' 
NDBC,ioos:station:NOAA.NDBC:SMKF1:1,2015-08-10T00:00:00Z,24.6280,-81.1120,48.5,2.1,230.0,2.6,'1111122,1111122,1111122' 
 
DISCLAIMER: The Gulf of Mexico Coastal and Ocean Observing (GCOOS) Data Portal aggregates data from the regional data providers for the convenience of all data users. Data published on this website should not be used for navigation or certain other uses as we cannot guarantee data accuracy or availability. The data and delivery services are provided 'as is' without warranty of any kind. Data Source: Gulf of Mexico Coastal Ocean Observing System Data Portal (http://data.gcoos.org/) 
